Welcome to the New NWS' Forecast!
Most changes are behind the scenes, but click here for differences you might notice.
Latest weather observations around

Monroe Regional Airport (KMLU)

Using English Units (Switch to International System of Units)
Date/ Time (CST) Wind (mph) Vis. (mi) Weather Sky Cond. Temp (°F) Rel. Humidity Wind Chill (°F) Heat Index (°F) Pressure Precip. (in)
Air Dwpt 6 hour Altimeter (inHg) Sea level (inHg) 1 hr 3 hr 6 hr
Max Min
Nov 22 03:53 N 11 10 Clear CLR 50 46     86% 46   30.17 30.16      
Nov 22 02:53 N 9 10 Clear CLR 52 48     86%     30.15 30.14      
Nov 22 01:53 N 5 10 Clear CLR 52 48     86%     30.13 30.13      
Nov 22 00:53 N 5 10 Cloudy OVC050 55 50     83%     30.13 30.12      
Nov 21 23:53 NNE 3 10 Cloudy FEW040 OVC055 54 50     86%     30.13 30.13      
Nov 21 22:53 Calm 10 Mostly Cloudy FEW043 BKN055 54 49     83%     30.13 30.13      
Nov 21 21:53 Calm 10 Mostly Cloudy BKN060 56 50     80%     30.11 30.11      
Nov 21 20:53 N 5 10 Cloudy OVC060 55 50     83%     30.1 30.1      
Nov 21 19:53 Calm 10 Cloudy OVC055 55 50     83%     30.07 30.06      
Nov 21 18:53 Calm 10 Cloudy OVC055 56 50     80%     30.04 30.04      
Nov 21 17:53 Calm 10 Mostly Cloudy BKN065 58 49     72%     30.03 30.03      
Nov 21 16:53 NE 3 10 Cloudy OVC055 61 50     67%     30.02 30.02      
Nov 21 15:53 NNW 3 10 Cloudy OVC055 63 47     56%     30.01 30.01      
Nov 21 14:53 N 5 10 Cloudy OVC058 64 46     52%     30 30      
Nov 21 13:53 Calm 10 Mostly Cloudy SCT060 BKN085 64 44     48%     30 29.99      
Nov 21 12:53 Calm 10 Mostly Cloudy BKN070 64 44     48%     30.01 30      
Nov 21 11:53 SSW 3 10 Clear CLR 62 44     52%     30.02 30.01      
Nov 21 10:53 Calm 10 Mostly Cloudy BKN095 58 44     60%     30.04 30.03      
Nov 21 09:53 3 9 Mostly Cloudy BKN090 53 42     66%     30.06 30.06      
Nov 21 08:53 S 3 10 Clear CLR 48 41     77% 47   30.05 30.05      
Nov 21 07:53 Calm 10 Clear CLR 39 38     96%     30.04 30.04      
Nov 21 06:53 Calm 9 Clear CLR 34 33     96%     30.02 30.02      
Nov 21 05:53 Calm 10 Clear CLR 35 33     92%     30.03 30.03      
Nov 21 04:53 Calm 10 Clear CLR 34 32     92%     30.02 30.01      
Nov 21 03:53 Calm 10 Clear CLR 32 30     92%     30 30      
Nov 21 02:53 Calm 10 Clear CLR 33 30     88%     30.02 30.02      
Nov 21 01:53 Calm 10 Clear CLR 35 32     88%     30.04 30.04      
Nov 21 00:53 Calm 10 Clear CLR 35 32     88%     30.07 30.06      
Nov 20 23:53 Calm 10 Clear CLR 35 32     88%     30.07 30.07      
Nov 20 22:53 Calm 10 Clear CLR 37 32     82%     30.09 30.09      
Nov 20 21:53 Calm 10 Clear CLR 37 32     82%     30.08 30.08      
Nov 20 20:53 Calm 10 Clear CLR 39 33     79%     30.09 30.08      
Nov 20 19:53 ESE 3 10 Clear CLR 40 33     76% 38   30.1 30.1      
Nov 20 18:53 Calm 10 Clear CLR 42 34     73%     30.12 30.11      
Nov 20 17:53 SE 3 10 Clear CLR 46 34     63% 45   30.12 30.11      
Nov 20 16:53 S 3 10 Clear CLR 53 29     39%     30.12 30.12      
Nov 20 15:53 S 6 10 Clear CLR 57 30     36%     30.12 30.11      
Nov 20 14:53 S 3 10 Clear CLR 58 28     32%     30.13 30.13      
Nov 20 13:53 S 6 10 Clear CLR 56 28     34%     30.15 30.15      
Nov 20 12:53 3 6 Haze FEW005 54 30     40%     30.18 30.18      
Nov 20 12:23 ESE 5 4 Haze FEW002 54 30     40%     30.21        
Nov 20 11:53 Calm 10 Clear CLR 53 30     41%     30.23 30.22      
Nov 20 10:53 S 5 10 Clear CLR 51 30     44%     30.28 30.28      
Nov 20 09:53 S 6 10 Clear CLR 47 35     63% 44   30.3 30.29      
Nov 20 08:53 Calm 6 Haze CLR 42 36     79%     30.29 30.29      
Nov 20 07:53 Calm 4 Fog/Mist CLR 33 33     100%     30.28 30.28      
Nov 20 06:53 Calm 10 Clear CLR 31 30     96%     30.27 30.27      
Nov 20 06:08 Calm 5 Fog/Mist CLR 31 30     96%     30.26        
Nov 20 05:53 Calm 2.5 Fog/Mist CLR 31 31     100%     30.26 30.26      
Nov 20 05:42 Calm 4 Fog/Mist CLR 32 32     100%     30.26        
Nov 20 05:34 Calm 1.75 Fog/Mist CLR 32 32     100%     30.26        
Nov 20 04:53 Calm 3 Fog/Mist CLR 32 32     100%     30.26 30.26      
Nov 20 04:50 Calm 2 Fog/Mist CLR 34 32     93%     30.26        
Nov 20 04:40 Calm 4 Fog/Mist CLR 33 32     96%     30.26        
Nov 20 04:21 Calm 2 Fog/Mist CLR 32 32     100%     30.26        
Nov 20 03:53 Calm 7 Clear CLR 34 33     96%     30.25 30.25      
Nov 20 02:53 Calm 7 Clear CLR 33 32     96%     30.25 30.24      
Nov 20 01:53 Calm 10 Clear CLR 35 35     100%     30.25 30.25      
Nov 20 00:53 Calm 10 Clear CLR 35 33     92%     30.27 30.27      
Nov 19 23:53 Calm 10 Clear CLR 38 35     89%     30.27 30.27      
Nov 19 22:53 Calm 10 Clear CLR 39 35     86%     30.27 30.27      
Nov 19 21:53 Calm 10 Clear CLR 39 34     82%     30.27 30.27      
Nov 19 20:53 Calm 10 Clear CLR 40 34     79%     30.26 30.26      
Nov 19 19:53 Calm 10 Clear CLR 41 35     79%     30.25 30.25      
Nov 19 18:53 Calm 10 Clear CLR 44 34     67%     30.25 30.25      
Nov 19 17:53 Calm 10 Clear CLR 47 33     58%     30.23 30.22      
Nov 19 16:53 N 6 10 Clear CLR 54 29     38%     30.22 30.22      
Nov 19 15:53 NNE 9 10 Clear CLR 59 26     28%     30.22 30.22      
Nov 19 14:53 NNE 11 10 Clear CLR 61 26     26%     30.22 30.22      
Nov 19 13:53 N 13 10 Clear CLR 60 28     29%     30.24 30.24      
Nov 19 12:53 NNW 11 10 Clear CLR 59 27     29%     30.26 30.26      
Nov 19 11:53 NNW 13 10 Clear CLR 59 27     29%     30.29 30.29      
Nov 19 10:53 NNE 13 10 Clear CLR 58 28     32%     30.32 30.31      
Nov 19 09:53 N 11 10 Clear CLR 54 33     45%     30.32 30.32      
Nov 19 08:53 N 11 10 Clear CLR 50 37     61% 46   30.31 30.31      
Nov 19 07:53 NNW 6 10 Clear CLR 44 38     79% 41   30.29 30.29      
Nov 19 06:53 NNW 6 10 Clear CLR 39 35     86% 35   30.26 30.26      
Nov 19 05:53 NNW 5 10 Clear CLR 40 35     83% 37   30.25 30.25      
Nov 19 04:53 NNW 6 10 Clear CLR 40 35     83% 36   30.24 30.24      
Nov 19 03:53 NW 6 10 Clear CLR 42 36     79% 38   30.23 30.22      
Jun 11 22:53 E 3 10 Clear   74 72     94%   75 30.02 30.01 0    
Jun 11 10:53 6 10 Partly Cloudy SCT050 83 70     65%   87 30.05 30.05      
Jun 11 01:53 S 3 10 Clear CLR 72 64     76%   72 30 29.99      
Jun 09 08:53 5 10 Clear CLR 73 61     66%   73 29.98 29.98      
Jun 09 04:53 Calm 10 Clear CLR 62 59     90%     29.93 29.93      
Jun 07 10:53 NE 17 10 Clear CLR 79 60     52%   79 29.93 29.92      
Jun 06 07:53 N 6 6 Light Rain and Fog/Mist OVC005 73 71     94%   74 29.77 29.76 0    
Jun 06 04:53 N 6 10 Light Rain OVC110 72 71     97%   73 29.74 29.73 0    
Notice The following observation data may not be complete
Jun 06 03:06   1 Heavy Rain and Fog/Mist FEW007 SCT017 OVC027          %         0    
Jun 06 01:53 N 5 10 Cloudy SCT019 BKN040 OVC090 74 71     91%   75 29.74 29.73      
Jun 05 14:11 5 10 Cloudy BKN020 OVC048 80 69     69%   83 29.75